Location: Sungai Igah
(2.7333°N, 114.2500°E)
Time: 03:57:09
(UTC+00:00)

Cosmos 1420 Rocket - Pass Details

Date: 14 June 2021
Orbit: 753 x 781 km, 74.0° (Epoch: 02 August)

Event Time Altitude Azimuth Distance (km) Brightness Sun altitude
Exits shadow 12:25:07 51° 30° (NNE) 942 4.3 -26.5°
Drops below altitude 10° 12:28:58 10° 17° (NNE) 2,267 6.5 -27.3°
Sets 12:31:19 0° 15° (NNE) 3,190 7.4 -27.8°
